When you browse on this site, cookies collect data to enhance your experience and personalize the content and advertising you see.
Visit our Privacy Policy to learn more. By continuing to use the site, you agree to this use of cookies and data.
  • în România
  • Lista ţărilor
  • Pe 7 zile
  • Temperatura apei
  • Meteo pe hartă
  • Widget-uri
  • user-avatar
    Intrare

    Meteo pe oră la Sainte-Genevieve-des-Bois

    Astăzi, 4 Iunie, Joi

    Timp Temperatura Precipitaţii Vânt Presiune Umiditate
    00:00 +14°C° 0.5 mm 4 m/s 743 mmHg 80%
    01:00 +14°C° 0.2 mm 4 m/s 743 mmHg 81%
    02:00 +13°C° 0.2 mm 3 m/s 743 mmHg 82%
    03:00 +13°C° 0.2 mm 3 m/s 742 mmHg 84%
    04:00 +13°C° 0.2 mm 3 m/s 742 mmHg 85%
    05:00 +13°C° 0.2 mm 3 m/s 742 mmHg 86%
    06:00 +13°C° 0.2 mm 3 m/s 742 mmHg 87%
    07:00 +13°C° 0.3 mm 3 m/s 743 mmHg 84%
    08:00 +13°C° 0.3 mm 3 m/s 743 mmHg 82%
    09:00 +14°C° 0.3 mm 3 m/s 743 mmHg 79%
    10:00 +14°C° 0.2 mm 3 m/s 743 mmHg 78%
    11:00 +14°C° 0.2 mm 3 m/s 743 mmHg 76%
    12:00 +14°C° 0.2 mm 3 m/s 743 mmHg 74%
    13:00 +14°C° 0.1 mm 4 m/s 743 mmHg 73%
    14:00 +14°C° 0.1 mm 4 m/s 743 mmHg 72%
    15:00 +15°C° 0.1 mm 5 m/s 743 mmHg 71%
    16:00 +14°C° 0.1 mm 4 m/s 743 mmHg 73%
    17:00 +14°C° 0.1 mm 4 m/s 743 mmHg 74%
    18:00 +14°C° 0.1 mm 4 m/s 744 mmHg 75%
    19:00 +13°C° 0.1 mm 4 m/s 744 mmHg 79%
    20:00 +12°C° 0.1 mm 3 m/s 744 mmHg 82%
    21:00 +11°C° 0.1 mm 3 m/s 745 mmHg 86%
    22:00 +10°C° 0 mm 3 m/s 745 mmHg 85%
    23:00 +10°C° 0 mm 3 m/s 745 mmHg 85%

    Mâine, 5 Iunie, Vineri

    Timp Temperatura Precipitaţii Vânt Presiune Umiditate
    00:00 +9°C° 0 mm 3 m/s 745 mmHg 85%
    01:00 +9°C° 0 mm 3 m/s 745 mmHg 85%
    02:00 +9°C° 0 mm 3 m/s 745 mmHg 86%
    03:00 +8°C° 0 mm 3 m/s 744 mmHg 87%
    04:00 +8°C° 0.2 mm 4 m/s 744 mmHg 88%
    05:00 +8°C° 0.2 mm 5 m/s 744 mmHg 88%
    06:00 +9°C° 0.2 mm 5 m/s 743 mmHg 89%
    07:00 +9°C° 0.5 mm 6 m/s 743 mmHg 90%
    08:00 +10°C° 0.5 mm 6 m/s 743 mmHg 91%
    09:00 +10°C° 0.5 mm 6 m/s 743 mmHg 92%
    10:00 +12°C° 0.4 mm 7 m/s 743 mmHg 84%
    11:00 +14°C° 0.4 mm 7 m/s 743 mmHg 77%
    12:00 +16°C° 0.4 mm 7 m/s 743 mmHg 69%
    13:00 +16°C° 0.1 mm 7 m/s 743 mmHg 69%
    14:00 +16°C° 0.1 mm 7 m/s 743 mmHg 69%
    15:00 +15°C° 0.1 mm 7 m/s 743 mmHg 69%
    16:00 +14°C° 0.4 mm 6 m/s 743 mmHg 75%
    17:00 +13°C° 0.4 mm 5 m/s 743 mmHg 80%
    18:00 +12°C° 0.4 mm 3 m/s 742 mmHg 86%
    19:00 +12°C° 0.2 mm 3 m/s 743 mmHg 86%
    20:00 +12°C° 0.2 mm 3 m/s 744 mmHg 86%
    21:00 +11°C° 0.2 mm 3 m/s 744 mmHg 86%
    22:00 +11°C° 0 mm 3 m/s 744 mmHg 86%
    23:00 +11°C° 0 mm 3 m/s 745 mmHg 86%

    Poimâine, 6 Iunie, Sâmbătă

    Timp Temperatura Precipitaţii Vânt Presiune Umiditate
    00:00 +10°C° 0 mm 3 m/s 745 mmHg 86%
    01:00 +9°C° 0 mm 3 m/s 745 mmHg 86%
    02:00 +9°C° 0 mm 3 m/s 745 mmHg 86%
    03:00 +8°C° 0 mm 3 m/s 745 mmHg 86%
    04:00 +9°C° 0 mm 3 m/s 745 mmHg 85%
    05:00 +10°C° 0 mm 3 m/s 745 mmHg 83%
    06:00 +10°C° 0 mm 4 m/s 745 mmHg 82%
    07:00 +11°C° 0.1 mm 4 m/s 746 mmHg 78%
    08:00 +12°C° 0.1 mm 4 m/s 746 mmHg 74%
    09:00 +13°C° 0.1 mm 5 m/s 746 mmHg 70%
    10:00 +14°C° 0.2 mm 5 m/s 746 mmHg 64%
    11:00 +15°C° 0.2 mm 6 m/s 746 mmHg 59%
    12:00 +16°C° 0.2 mm 6 m/s 746 mmHg 53%
    13:00 +16°C° 0 mm 6 m/s 746 mmHg 53%
    14:00 +16°C° 0 mm 6 m/s 746 mmHg 52%
    15:00 +16°C° 0 mm 6 m/s 746 mmHg 51%
    16:00 +15°C° 0 mm 6 m/s 746 mmHg 54%
    17:00 +14°C° 0 mm 5 m/s 747 mmHg 57%
    18:00 +14°C° 0 mm 5 m/s 747 mmHg 60%
    19:00 +12°C° 0 mm 4 m/s 747 mmHg 64%
    20:00 +11°C° 0 mm 4 m/s 748 mmHg 68%
    21:00 +9°C° 0 mm 3 m/s 748 mmHg 71%
    22:00 +9°C° 0 mm 3 m/s 748 mmHg 73%
    23:00 +8°C° 0 mm 3 m/s 748 mmHg 76%

    7 Iunie, Duminică

    Timp Temperatura Precipitaţii Vânt Presiune Umiditate
    00:00 +7°C° 0 mm 3 m/s 748 mmHg 78%
    01:00 +7°C° 0 mm 3 m/s 749 mmHg 78%
    02:00 +6°C° 0 mm 4 m/s 749 mmHg 79%
    03:00 +6°C° 0 mm 4 m/s 749 mmHg 79%
    04:00 +7°C° 0 mm 4 m/s 749 mmHg 78%
    05:00 +7°C° 0 mm 4 m/s 749 mmHg 76%
    06:00 +8°C° 0 mm 4 m/s 749 mmHg 74%
    07:00 +9°C° 0 mm 5 m/s 750 mmHg 69%
    08:00 +12°C° 0 mm 5 m/s 750 mmHg 64%
    09:00 +14°C° 0 mm 5 m/s 750 mmHg 59%
    10:00 +15°C° 0.1 mm 5 m/s 750 mmHg 58%
    11:00 +15°C° 0.1 mm 5 m/s 750 mmHg 57%
    12:00 +16°C° 0.1 mm 5 m/s 750 mmHg 56%
    13:00 +16°C° 0.6 mm 5 m/s 750 mmHg 60%
    14:00 +16°C° 0.6 mm 5 m/s 750 mmHg 63%
    15:00 +16°C° 0.6 mm 5 m/s 750 mmHg 67%
    16:00 +16°C° 0.7 mm 5 m/s 750 mmHg 70%
    17:00 +15°C° 0.7 mm 4 m/s 750 mmHg 73%
    18:00 +15°C° 0.7 mm 4 m/s 750 mmHg 76%
    19:00 +14°C° 0.3 mm 3 m/s 751 mmHg 79%
    20:00 +13°C° 0.3 mm 3 m/s 751 mmHg 82%
    21:00 +12°C° 0.3 mm 2 m/s 752 mmHg 85%
    22:00 +12°C° 0 mm 2 m/s 752 mmHg 86%
    23:00 +10°C° 0 mm 2 m/s 752 mmHg 86%

    8 Iunie, Luni

    Timp Temperatura Precipitaţii Vânt Presiune Umiditate
    00:00 +10°C° 0 mm 2 m/s 752 mmHg 87%
    01:00 +10°C° 0 mm 2 m/s 752 mmHg 88%
    02:00 +10°C° 0 mm 2 m/s 752 mmHg 89%
    03:00 +9°C° 0 mm 2 m/s 752 mmHg 89%
    04:00 +10°C° 0.1 mm 3 m/s 752 mmHg 89%
    05:00 +11°C° 0.1 mm 3 m/s 752 mmHg 89%
    06:00 +11°C° 0.1 mm 3 m/s 752 mmHg 89%
    07:00 +12°C° 0.1 mm 3 m/s 753 mmHg 88%
    08:00 +12°C° 0.1 mm 3 m/s 753 mmHg 87%
    09:00 +13°C° 0.1 mm 3 m/s 753 mmHg 85%
    10:00 +14°C° 0.2 mm 3 m/s 753 mmHg 82%
    11:00 +14°C° 0.2 mm 3 m/s 753 mmHg 80%
    12:00 +15°C° 0.2 mm 4 m/s 754 mmHg 77%
    13:00 +17°C° 0.4 mm 4 m/s 754 mmHg 74%
    14:00 +17°C° 0.4 mm 4 m/s 754 mmHg 72%
    15:00 +18°C° 0.4 mm 4 m/s 754 mmHg 70%
    16:00 +17°C° 0.1 mm 4 m/s 754 mmHg 70%
    17:00 +17°C° 0.1 mm 4 m/s 754 mmHg 71%
    18:00 +17°C° 0.1 mm 3 m/s 754 mmHg 71%
    19:00 +14°C° 0 mm 3 m/s 755 mmHg 73%
    20:00 +13°C° 0 mm 3 m/s 755 mmHg 76%
    21:00 +12°C° 0 mm 3 m/s 756 mmHg 78%
    22:00 +13°C° 0 mm 2 m/s 756 mmHg 80%
    23:00 +12°C° 0 mm 2 m/s 756 mmHg 83%

    9 Iunie, Marţi

    Timp Temperatura Precipitaţii Vânt Presiune Umiditate
    00:00 +10°C° 0 mm 2 m/s 756 mmHg 86%
    01:00 +10°C° 0 mm 2 m/s 756 mmHg 85%
    02:00 +10°C° 0 mm 2 m/s 756 mmHg 85%
    03:00 +10°C° 0 mm 2 m/s 756 mmHg 84%
    04:00 +10°C° 0 mm 2 m/s 757 mmHg 82%
    05:00 +12°C° 0 mm 2 m/s 757 mmHg 80%
    06:00 +12°C° 0 mm 2 m/s 757 mmHg 78%
    07:00 +13°C° 0 mm 2 m/s 758 mmHg 70%
    08:00 +15°C° 0 mm 2 m/s 758 mmHg 62%
    09:00 +16°C° 0 mm 2 m/s 758 mmHg 54%
    10:00 +17°C° 0 mm 3 m/s 758 mmHg 53%
    11:00 +17°C° 0 mm 3 m/s 758 mmHg 52%
    12:00 +18°C° 0 mm 4 m/s 758 mmHg 51%
    13:00 +18°C° 0 mm 4 m/s 758 mmHg 51%
    14:00 +18°C° 0 mm 4 m/s 758 mmHg 52%
    15:00 +18°C° 0 mm 4 m/s 757 mmHg 52%
    16:00 +18°C° 0 mm 3 m/s 757 mmHg 55%
    17:00 +17°C° 0 mm 3 m/s 757 mmHg 58%
    18:00 +17°C° 0 mm 3 m/s 757 mmHg 61%
    19:00 +16°C° 0 mm 2 m/s 758 mmHg 63%
    20:00 +14°C° 0 mm 2 m/s 758 mmHg 64%
    21:00 +13°C° 0 mm 2 m/s 758 mmHg 65%
    22:00 +12°C° 0 mm 2 m/s 758 mmHg 68%
    23:00 +11°C° 0 mm 1 m/s 758 mmHg 71%
    Arată mai mult